This is the latest recevied weather packets stored in our database for station/object KB1RMA-4. If no packets are shown the sender has not sent any weather packets the latest 10 day(s).
| Time | Temp. | Humidity | Pressure | Rain* | Wind** | Luminosity | Snow |
|---|---|---|---|---|---|---|---|
| 1788266680 | 16.67° C | 86% | 1018.9 hPa | 6.6 mm | - | 13 W/m² | - |
| 1788266375 | 16.67° C | 86% | 1018.8 hPa | 9.65 mm | - | 12 W/m² | - |
| 1788266070 | 16.67° C | 86% | 1018.9 hPa | 13.72 mm | - | 10 W/m² | - |
| 1788265767 | 16.67° C | 85% | 1018.7 hPa | 16.26 mm | - | 13 W/m² | - |
| 1788265462 | 16.67° C | 84% | 1018.8 hPa | 11.43 mm | - | 9 W/m² | - |
| 1788265162 | 16.67° C | 83% | 1018.7 hPa | 7.11 mm | - | 10 W/m² | - |
| 1788264857 | 17.22° C | 81% | 1018.4 hPa | 4.32 mm | - | 3 W/m² | - |
| 1788264552 | 17.22° C | 81% | 1018.4 hPa | 4.32 mm | - | 3 W/m² | - |
| 1788264252 | 17.22° C | 80% | 1018.6 hPa | 2.29 mm | - | 6 W/m² | - |
| 1788263947 | 17.22° C | 79% | 1018.4 hPa | 0 mm | - | 7 W/m² | - |
| 1788263647 | 17.22° C | 79% | 1018.4 hPa | 0 mm | - | 3 W/m² | - |
| 1788263345 | 17.22° C | 79% | 1018.5 hPa | 0 mm | - | 6 W/m² | - |
| 1788263040 | 17.22° C | 79% | 1018.7 hPa | 0 mm | - | 9 W/m² | - |
| 1788262738 | 17.22° C | 80% | 1018.3 hPa | 0 mm | - | 9 W/m² | - |
| 1788262438 | 17.22° C | 80% | 1018.3 hPa | 0 mm | - | 10 W/m² | - |
| 1788262133 | 17.22° C | 80% | 1018.6 hPa | 0 mm | - | 11 W/m² | - |
| 1788261828 | 17.22° C | 80% | 1018.2 hPa | 0 mm | - | 8 W/m² | - |
| 1788261528 | 17.22° C | 80% | 1018.2 hPa | 0 mm | - | 7 W/m² | - |
| 1788261226 | 17.22° C | 81% | 1018.3 hPa | 0 mm | - | 12 W/m² | - |
| 1788260925 | 17.22° C | 81% | 1018.2 hPa | 0 mm | - | 14 W/m² | - |
| 1788260621 | 17.22° C | 81% | 1018.2 hPa | 0 mm | - | 10 W/m² | - |
| 1788260317 | 17.22° C | 81% | 1018.1 hPa | 0 mm | - | 9 W/m² | - |
| 1788260012 | 17.22° C | 81% | 1017.8 hPa | 0 mm | - | 11 W/m² | - |
| 1788259708 | 17.22° C | 81% | 1017.9 hPa | 0 mm | - | 10 W/m² | - |
| 1788259403 | 17.22° C | 81% | 1017.9 hPa | 0 mm | - | 7 W/m² | - |
* Rain latest hour (hover to see other rain measurements)
** Current wind speed in m/s (hover to see current wind gust speed)